Location: Doschendorf
(50.0069°N, 11.0602°E)
Time: 12:38:03
(UTC+00:00)

NOAA 12 - Pass Details

Date: 25 February 2020
Orbit: 795 x 815 km, 98.5° (Epoch: 05 April)

Event Time Altitude Azimuth Distance (km) Brightness Sun altitude
Rises 18:23:10 0° 213° (SSW) 3,315 7.7 -15.7°
Reaches altitude 10° 18:26:22 10° 233° (SW) 2,394 7.3 -16.2°
Maximum altitude 18:29:41 17° 272° (W) 1,974 7.2 -16.7°
Drops below altitude 10° 18:33:02 10° 312° (NW) 2,412 7.4 -17.2°
Sets 18:36:18 0° 332° (NNW) 3,352 7.8 -17.8°
